Regional Weather Roundup
Issued by NWS Columbia, SC

Home | Current Version | Previous Version | Text Only | Print | Product List | Glossary On
Versions: 1 2 3 4 5 6 7 8 9 10 11 12 13 14 15 16 17 18 19 20 21 22 23 24 25 26 27 28 29 30 31 32 33 34 35 36 37 38 39 40 41 42 43 44 45 46 47 48 49 50
000
ASUS42 KCAE 020810
RWRCAE
REGIONAL WEATHER ROUNDUP
NATIONAL WEATHER SERVICE COLUMBIA SC
400 AM EDT THU OCT 02 2014

NOTE: "FAIR" INDICATES FEW OR NO CLOUDS BELOW 12,000 FEET WITH NO
SIGNIFICANT WEATHER AND/OR OBSTRUCTIONS TO VISIBILITY.

NOT ALL STATIONS ARE QUALITY CONTROLLED BY THE NATIONAL
WEATHER SERVICE. USE DATA WITH CAUTION...ESPECIALLY
DEWPOINT OBSERVATIONS.

SCZ001>056-GAZ040-063>065-077-020900-
...UPSTATE SOUTH CAROLINA...

CITY           SKY/WX    TMP DP  RH WIND       PRES   REMARKS
ANDERSON       CLEAR     61  59  93 CALM      30.05S
LIBERTY        FAIR      57  57 100 MISG      30.06R
SPARTANBURG    FAIR      64 N/A N/A CALM      30.05S
CLEMSON        CLEAR     66  62  87 CALM      30.07R
GREENVILLE     MOCLDY    66  60  81 CALM      30.07R
GREENWOOD      CLEAR     65  60  84 SW5       30.06S
GREER          MOCLDY    64  63  96 NE3       30.05R
ROCK HILL      CLEAR     60  60 100 CALM      30.06S FOG
CHESTER        PTSUNNY   66  63  88 CALM      30.10S
LAURENS        FAIR      61 N/A N/A CALM      30.06S


...CENTRAL SOUTH CAROLINA...

CITY           SKY/WX    TMP DP  RH WIND       PRES   REMARKS
COLUMBIA APT   CLEAR     67  63  87 CALM      30.04S
COLUMBIA OWENS CLEAR     64  61  90 CALM      30.05F FOG
DARLINGTON     CLEAR     63  59  88 SW3       30.06S
FLORENCE       CLEAR     65  63  93 CALM      30.05R
MCENTIRE ANGB  CLEAR     61  61 100 CALM      30.05S FOG
ORANGEBURG     FOG       63  62  97 CALM      30.05S VSB 1
SUMTER SHAW    CLEAR     64  62  93 CALM      30.03F
NEWBERRY       FAIR      64  64 100 S3        30.08R
AIKEN          FAIR      61  61 100 CALM      30.09R
BARNWELL       FAIR      63  63 100 MISG      30.06R
MANNING        FAIR      63 N/A N/A CALM      30.05S
CAMDEN         FAIR      63  61  94 CALM      30.06S
LANCASTER      LGT RAIN  64  64 100 CALM      30.05S
WINNSBORO      FAIR      64  64 100 S6        30.05S


...EASTERN AND COASTAL SOUTH CAROLINA...

CITY           SKY/WX    TMP DP  RH WIND       PRES   REMARKS
MYRTLE BEACH   MOCLDY    66  64  94 CALM      30.05R
N MYRTLE BCH   CLEAR     65  63  93 CALM      30.04S FOG
CONWAY         FAIR      61  61 100 CALM      30.05S
MARION         FAIR      63  63 100 CALM      30.05S FOG
HARTSVILLE     FAIR      64  63  94 W3        30.06S
FLORENCE       CLEAR     65  63  93 CALM      30.05R
DARLINGTON     CLEAR     63  59  88 SW3       30.06S
CHARLESTON APT PTCLDY    64  62  93 N3        30.04S
MOUNT PLEASANT LGT RAIN  63  63 100 CALM      30.04S
WALTERBORO     SUNNY     63 N/A N/A CALM      30.05S
BEAUFORT       CLEAR     65  63  93 CALM      30.04S


...EASTERN GEORGIA...

CITY           SKY/WX    TMP DP  RH WIND       PRES   REMARKS
AUGUSTA BUSH F FOG       58  58 100 CALM      30.04S VSB 1/4
AUGUSTA DANIEL CLEAR     67  63  87 CALM      30.05S
THOMSON        CLEAR     65  65 100 CALM      30.09S
WASHINGTON     FAIR      66  66 100 S3        30.05S
CLAXTON        FAIR      63  63 100 CALM      30.04S
SYLVANIA       SUNNY     65  64  99 CALM      30.05S
STATESBORO     CLEAR     62  62 100 CALM      30.04S FOG
SAVANNAH       PTCLDY    65  62  90 CALM      30.04S


...SOUTHERN NORTH CAROLINA...

CITY           SKY/WX    TMP DP  RH WIND       PRES   REMARKS
CHARLOTTE      PTCLDY    65  61  87 CALM      30.05F
MONROE         FOG       63  61  93 CALM      30.05S VSB 1
WADESBORO      FOG       60  59  96 CALM      30.05S VSB<1/4
ROCKINGHAM     MOSUNNY   63  62  98 CALM      30.05S FOG
RUTHERFORDTON  PTCLDY    62  61  97 NW5       30.07S
ASHEVILLE      FOG       58  57  97 CALM      30.12S VSB 1/2

$$


USA.gov is the U.S. government's official web portal to all federal, state and local government web resources and services.